Location: College Park
(38.9810°N, 76.9370°W)
Time: 16:42:14

Hubble Space Telescope - Pass Details

Date: 16 March 2018
Orbit: 537 x 541 km, 28.5° (Epoch: 20 March)

Event Time Altitude Azimuth Distance (km) Brightness Sun altitude
Rises 21:18:28 0° 250° (WSW) 2,679 5.1 -24.2°
Reaches altitude 10° 21:21:35 10° 226° (SW) 1,786 3.7 -24.8°
Enters shadow 21:22:54 14° 208° (SSW) 1,573 3.2 -25.1°
